GW7393 Weather Reports


time (UTC)temp
F
wind
direction
speed
knots
gust
knots
rain 1hr
in
rain 24hr
in
rain mn
in
humidity
%
barometer
mb
20260906031540 74 0.0 0.0 0.00 0.01 0.01 87 1013.6
20260906030026 74 0.0 0.0 0.00 0.01 0.01 87 1013.4
20260906024528 75 0.0 0.0 0.00 0.01 0.01 86 1013.4
20260906023028 75 0.0 0.0 0.00 0.01 0.01 86 1013.5
20260906021528 75 0.0 0.0 0.00 0.01 0.01 86 1013.2
20260906020032 75 0.0 0.0 0.00 0.01 0.01 85 1012.9
20260906014531 75 0.0 0.0 0.00 0.01 0.01 84 1012.9
20260906013003 76 0.0 0.0 0.00 0.01 0.01 84 1013.0
20260906011510 76 0.0 0.0 0.00 0.01 0.01 83 1012.8
20260906010005 77 0.0 0.0 0.00 0.01 0.01 82 1012.5
20260906004512 77 0.0 0.0 0.00 0.01 0.01 82 1012.4
20260906003023 78 0.0 0.0 0.00 0.01 0.01 81 1012.4
20260906001526 79 0.0 0.0 0.00 0.01 0.01 80 1012.5
20260906000006 80 0.0 0.0 0.00 0.01 0.01 79 1012.4
20260905234511 81 0.0 0.0 0.00 0.01 0.01 79 1012.3
20260905233018 82 0.0 0.0 0.00 0.01 0.01 79 1012.2
20260905231520 82 0.0 0.0 0.00 0.01 0.01 79 1012.0
20260905230004 82 0.0 0.0 0.00 0.01 0.01 78 1012.0
20260905224531 83 0.0 0.0 0.00 0.01 0.01 79 1012.0
20260905223037 82 0.0 0.0 0.00 0.01 0.01 79 1011.9
20260905221543 81 0.0 0.0 0.00 0.01 0.01 79 1011.9
20260905220029 81 0.0 0.0 0.00 0.01 0.01 79 1011.9
20260905214505 81 0.0 0.0 0.00 0.01 0.01 79 1012.3
20260905213011 81 0.0 0.0 0.00 0.01 0.01 79 1012.5
20260905211534 80 0.0 0.0 0.00 0.01 0.01 79 1012.6
20260905210025 80 0.0 0.0 0.00 0.01 0.01 79 1012.7
20260905204533 79 0.0 0.0 0.00 0.01 0.01 79 1012.8
20260905203008 78 0.0 0.0 0.00 0.01 0.01 78 1013.4
20260905201512 78 0.0 0.0 0.01 0.01 0.01 78 1013.8
20260905200021 77 0.0 0.0 0.01 0.01 0.01 78 1013.5
20260905194525 76 0.0 0.0 0.01 0.01 0.01 76 1012.7
20260905193028 76 0.0 0.0 0.01 0.01 0.01 73 1013.1
20260905191509 78 0.0 0.0 0.00 0.00 0.00 69 1013.5
20260905190018 83 0.0 0.0 0.00 0.00 0.00 63 1013.5
20260905184532 91 0.0 0.0 0.00 0.00 0.00 61 1013.5
20260905183028 93 0.0 0.0 0.00 0.00 0.00 60 1013.2
20260905181510 94 0.0 0.0 0.00 0.00 0.00 59 1012.4
20260905180014 94 0.0 0.0 0.00 0.00 0.00 60 1012.9
20260905174521 94 0.0 0.0 0.00 0.00 0.00 62 1013.0
20260905173025 94 0.0 0.0 0.00 0.00 0.00 65 1013.4
20260905171544 93 0.0 0.0 0.00 0.00 0.00 67 1013.6
20260905170012 93 0.0 0.0 0.00 0.00 0.00 70 1013.7
20260905164539 92 0.0 0.0 0.00 0.00 0.00 73 1013.9
20260905163034 91 0.0 0.0 0.00 0.00 0.00 75 1014.2
20260905161538 90 0.0 0.0 0.00 0.00 0.00 78 1014.3
20260905160025 89 0.0 0.0 0.00 0.00 0.00 80 1014.4
20260905154530 89 0.0 0.0 0.00 0.00 0.00 82 1014.4
20260905153025 88 0.0 0.0 0.00 0.00 0.00 83 1014.7
20260905151537 87 0.0 0.0 0.00 0.00 0.00 84 1014.6
20260905150031 86 0.0 0.0 0.00 0.00 0.00 86 1014.6
20260905144539 85 0.0 0.0 0.00 0.00 0.00 86 1014.5
20260905143020 84 0.0 0.0 0.00 0.00 0.00 87 1014.6
20260905141534 84 0.0 0.0 0.00 0.00 0.00 88 1014.6
20260905140035 83 0.0 0.0 0.00 0.00 0.00 89 1014.7
20260905134511 81 0.0 0.0 0.00 0.00 0.00 90 1014.9
20260905133014 80 0.0 0.0 0.00 0.00 0.00 90 1015.0
20260905131532 80 0.0 0.0 0.00 0.00 0.00 91 1015.0
20260905130029 78 0.0 0.0 0.00 0.00 0.00 91 1015.1
20260905124540 77 0.0 0.0 0.00 0.00 0.00 91 1015.0
20260905123014 76 0.0 0.0 0.00 0.00 0.00 92 1014.9
20260905121519 74 0.0 0.0 0.00 0.00 0.00 92 1014.9
20260905120031 73 0.0 0.0 0.00 0.00 0.00 92 1014.8
20260905114531 73 0.0 0.0 0.00 0.00 0.00 91 1014.5
20260905113035 72 0.0 0.0 0.00 0.00 0.00 91 1014.4
20260905111518 72 0.0 0.0 0.00 0.00 0.00 91 1014.3
20260905110025 72 0.0 0.0 0.00 0.00 0.00 91 1014.0
20260905104535 73 0.0 0.0 0.00 0.00 0.00 91 1013.8
20260905103035 73 0.0 0.0 0.00 0.00 0.00 91 1013.7
20260905101530 73 0.0 0.0 0.00 0.00 0.00 91 1013.7
20260905100022 73 0.0 0.0 0.00 0.00 0.00 91 1013.6
20260905094527 73 0.0 0.0 0.00 0.00 0.00 90 1013.6
20260905093032 73 0.0 0.0 0.00 0.00 0.00 90 1013.7
20260905091534 73 0.0 0.0 0.00 0.00 0.00 90 1013.8
20260905090034 74 0.0 0.0 0.00 0.00 0.00 90 1013.7
20260905084535 74 0.0 0.0 0.00 0.00 0.00 90 1013.8
20260905083031 74 0.0 0.0 0.00 0.00 0.00 90 1013.9
20260905081532 74 0.0 0.0 0.00 0.00 0.00 89 1014.1
20260905080048 74 0.0 0.0 0.00 0.00 0.00 89 1014.2
20260905074520 74 0.0 0.0 0.00 0.00 0.00 89 1014.3
20260905073042 75 0.0 0.0 0.00 0.00 0.00 89 1014.3
20260905071531 75 0.0 0.0 0.00 0.00 0.00 89 1014.5
20260905070012 75 0.0 0.0 0.00 0.00 0.00 89 1014.6
20260905064518 75 0.0 0.0 0.00 0.00 0.00 89 1014.8
20260905063027 75 0.0 0.0 0.00 0.00 0.00 88 1014.9
20260905061549 76 0.0 0.0 0.00 0.00 0.00 88 1014.9
20260905060031 76 0.0 0.0 0.00 0.00 0.00 88 1015.1
20260905054517 76 0.0 0.0 0.00 0.00 0.00 88 1015.1
20260905053023 76 0.0 0.0 0.00 0.00 0.00 87 1015.2
20260905051540 77 0.0 0.0 0.00 0.00 0.00 87 1015.3
20260905050030 77 0.0 0.0 0.00 0.00 0.00 87 1015.2
20260905044534 77 0.0 0.0 0.00 0.00 0.00 87 1015.3
20260905043030 77 0.0 0.0 0.00 0.00 0.00 86 1015.2
20260905041527 78 0.0 0.0 0.00 0.00 0.00 86 1015.1
20260905040009 78 0.0 0.0 0.00 0.00 0.00 86 1015.1
20260905034513 78 0.0 0.0 0.00 0.00 0.00 85 1015.1
20260905033038 78 0.0 0.0 0.00 0.00 0.00 85 1015.1